Regional Weather Roundup
Issued by NWS

Home | Current Version | Previous Version | Text Only | Print | Product List | Glossary Off
Versions: 1 2 3 4 5 6 7 8 9 10 11 12 13 14 15 16 17 18 19 20 21 22 23 24 25 26 27 28 29 30 31 32 33 34 35 36 37 38 39 40 41 42 43 44 45 46 47 48 49 50

000
ASUS43 KMKX 201110
RWRWI

WISCONSIN REGIONAL WEATHER ROUNDUP
NATIONAL WEATHER SERVICE MILWAUKEE/SULLIVAN WI
500 AM CST SAT JAN 20 2018

NOTE: "FAIR" INDICATES FEW OR NO CLOUDS BELOW 12,000 FEET WITH NO
SIGNIFICANT WEATHER AND/OR OBSTRUCTIONS TO VISIBILITY.

WIZ001-002-006>008-014>016-023>028-201200-
NORTHWEST WISCONSIN

CITY           SKY/WX    TMP DP  RH WIND       PRES   REMARKS
SUPERIOR ARPT  FAIR      29  27  93 SW6       29.75R WCI  23
ASHLAND        FAIR      28  25  88 SW7       29.75R WCI  21
HAYWARD        FOG       18  14  84 CALM      29.73F VSB 1/4
SIREN          FOG       20  19  95 CALM      29.78R VSB 3/4
CUMBERLAND     FOG       23  21  93 SW3       29.75R VSB<1/4
RICE LAKE      FOG       14  13  94 CALM      29.78R VSB<1/4
CHETEK         FAIR      16  15  93 SE3       29.77R
LADYSMITH      FOG       14  12  91 CALM      29.76R VSB 1/2
EAU CLAIRE     FOG       23  22  96 SW3       29.77S VSB 1/4
MENOMONIE      FAIR      22  21  97 CALM      29.78S FOG
NEW RICHMOND   FAIR      17  16  94 CALM      29.79R
OSCEOLA        CLOUDY    16  16 100 CALM      29.83R FOG
$$

WIZ003>005-009-010-017-018-201200-
NORTH CENTRAL WISCONSIN

CITY           SKY/WX    TMP DP  RH WIND       PRES   REMARKS
MANITOWISH WTR FAIR      25  25 100 W5        29.71R WCI  19
ARBOR VITAE    FAIR      32  29  90 W3        29.71R
WOODRUFF       FAIR      32  29  90 W3        29.71R
RHINELANDER    FAIR      31  28  89 NW7       29.71R WCI  24
EAGLE RIVER    FAIR      25  25  99 W3        29.69R
LAND O LAKES   FOG       16  15  95 CALM      29.72R VSB<1/4
PHILLIPS       FOG       15  14  97 CALM      29.72R VSB 1/4
TOMAHAWK       FAIR      25  24  95 CALM      29.73R
MEDFORD        FAIR      27  25  95 SW5       29.74R WCI  21
MERRILL        FAIR      25  25 100 CALM      29.74R FOG
$$

WIZ029-030-035-036-043>047-201200-
CENTRAL WISCONSIN

CITY           SKY/WX    TMP DP  RH WIND       PRES   REMARKS
WAUSAU         FAIR      30  27  88 NW6       29.73R WCI  24
MOSINEE        FAIR      32  28  86 W8        29.75S WCI  25
MARSHFIELD     FAIR      25  23  92 NW6       29.75R WCI  18
STEVENS POINT  FAIR      21  21 100 CALM      29.76R FOG
WAUPACA        FAIR      31  26  83 SW3       29.77R
WAUTOMA        FAIR      23  22  96 CALM      29.78R
WISC RAPIDS    FAIR      25  22  88 CALM      29.78R FOG
CAMP DOUGLAS   FOG       21  21 100 CALM      29.77R VSB 3/4
$$

WIZ011>013-019>022-031-037>040-048>050-201200-
NORTHEAST WISCONSIN

CITY           SKY/WX    TMP DP  RH WIND       PRES   REMARKS
ANTIGO         FAIR      27  26  94 W6        29.73R WCI  21
SHAWANO        FAIR      35  29  77 SW3       29.74R
OCONTO         FAIR      33  28  80 W6        29.73R WCI  28
STURGEON BAY   FAIR      36  28  73 W9        29.73  WCI  29
GREEN BAY      FAIR      31  26  82 S6        29.75R WCI  25
MANITOWOC      FAIR      36  28  73 W10       29.76R WCI  28
APPLETON       FAIR      32  27  80 W9        29.75R WCI  24
CLINTONVILLE   FAIR      32  28  86 W3        29.75R
OSHKOSH        FAIR      31  26  82 SW3       29.77R
$$

WIZ032>034-041-042-053>061-201200-
SOUTHWEST WISCONSIN

CITY           SKY/WX    TMP DP  RH WIND       PRES   REMARKS
LA CROSSE      FOG       26  25  96 CALM      29.79S VSB 1/4
SPARTA         FAIR      20  19  98 CALM      29.80S
VIROQUA        FAIR      31  31 100 W5        29.77R WCI  26
BOSCOBEL       FAIR      26  24  92 CALM      29.81R
PRAIRIE DU CHI FAIR      27  24  89 CALM      29.81R
PLATTEVILLE    FAIR      30  28  93 SW6       29.81R WCI  24
$$

WIZ056-057-062-063-064-067-068-201200-
SOUTH CENTRAL WISCONSIN

CITY           SKY/WX    TMP DP  RH WIND       PRES   REMARKS
REEDSBURG      FAIR      27  27 100 CALM      29.79R
BARABOO/DELLS  FAIR      31  26  82 SW5       29.78R WCI  27
LONE ROCK      FAIR      24  23  96 CALM      29.81R FOG
MINERAL POINT  FAIR      34  32  93 S3        29.80R
MADISON        FAIR      32  26  78 S3        29.80R
MIDDLETON      FAIR      32  28  85 SW3       29.80R
WATERTOWN      FAIR      29  29  99 SW5       29.79R WCI  24
MONROE         FAIR      32  28  86 SW9       29.80R WCI  24
JANESVILLE     FAIR      32  28  86 SW6       29.81R WCI  26
$$

WIZ051-052-058>065-066-070>072-201200-
SOUTHEAST WISCONSIN

CITY           SKY/WX    TMP DP  RH WIND       PRES   REMARKS
MILWAUKEE      MOCLDY    38  29  70 SW6       29.79R WCI  33
WAUKESHA       FAIR      34  27  75 SW6       29.80R WCI  29
MILWAUKEE/TIMM FAIR      34  27  75 W8        29.79S WCI  27
RACINE         FAIR      38  29  70 W12       29.81R WCI  30
BURLINGTON     FAIR      35  28  75 W8        29.81R WCI  28
KENOSHA        FAIR      37  28  70 W12       29.80R WCI  29
FOND DU LAC    FAIR      32  25  75 SW6       29.78R WCI  26
SHEBOYGAN      FAIR      33  28  81 SW6       29.76R WCI  28
WEST BEND      FAIR      32  28  86 W3        29.77S
JUNEAU         FAIR      29  25  88 SW3       29.79R
$$

LSZ147-162-201200-
LAKE SUPERIOR

STATION/POSITION TIME  TEMP    WIND        PRES    WAVE
                       AIR SEA DIR/SP/G            HT/PER
                 (UTC) (F)     (DEG/KT/KT) (MB)    (FT/S)
DEVILS ISLAND    1100   34     240/ 14/ 16 1006.7R
SAXON HARBOR     1040   31     190/  6/  8 1006.8R
$$

LMZ867-665-643>646-201200-
LAKE MICHIGAN

STATION/POSITION TIME  TEMP    WIND        PRES    WAVE
                       AIR SEA DIR/SP/G            HT/PER
                 (UTC) (F)     (DEG/KT/KT) (MB)    (FT/S)
NORTHPORT PIER   1040   36     240/  6/ 21 1006.1R
KEWAUNEE LAKESHO 1042   36     280/  4/  7 1006.3R
SHEBOYGAN LAKESH 1100   38     260/ 11/ 14 1008.1R
PORT WASHINGTON  1040   37     260/  4/  8 1009.1R
MILWAUKEE LAKESH 1050   39     270/ 10/ 11   N/A
KENOSHA   LAKESH 1100   38     260/  9/ 14 1009.5
$$

TC  - TEMPERATURE IN CELSIUS
VSB - VISIBILITY IN STATUTE MILES
WCI - WIND CHILL INDEX
HX  - HEAT INDEX




USA.gov is the U.S. government's official web portal to all federal, state and local government web resources and services.